This is the latest recevied weather packets stored in our database for station/object KO6MEX-13. If no packets are shown the sender has not sent any weather packets the latest 10 day(s).
| Time | Temp. | Humidity | Pressure | Rain* | Wind** | Luminosity | Snow |
|---|---|---|---|---|---|---|---|
| 1777907955 | 12.22° C | 78% | 1019 hPa | 0 mm | - | 101 W/m² | - |
| 1777907650 | 11.67° C | 79% | 1018.9 hPa | 0 mm | - | 102 W/m² | - |
| 1777907346 | 11.67° C | 79% | 1019 hPa | 0 mm | - | 101 W/m² | - |
| 1777907043 | 11.67° C | 79% | 1018.9 hPa | 0 mm | - | 95 W/m² | - |
| 1777906740 | 11.67° C | 79% | 1018.8 hPa | 0 mm | - | 88 W/m² | - |
| 1777906436 | 11.11° C | 80% | 1018.9 hPa | 0 mm | - | 89 W/m² | - |
| 1777906133 | 11.11° C | 80% | 1018.9 hPa | 0 mm | - | 88 W/m² | - |
| 1777905830 | 11.11° C | 80% | 1018.9 hPa | 0 mm | - | 77 W/m² | - |
| 1777905527 | 11.11° C | 80% | 1018.9 hPa | 0 mm | - | 68 W/m² | - |
| 1777905224 | 11.67° C | 78% | 1018.7 hPa | 0 mm | - | 65 W/m² | - |
| 1777904922 | 11.67° C | 79% | 1018.7 hPa | 0 mm | - | 82 W/m² | - |
| 1777904618 | 11.11° C | 80% | 1018.6 hPa | 0 mm | - | 64 W/m² | - |
| 1777904316 | 11.11° C | 80% | 1018.7 hPa | 0 mm | - | 49 W/m² | - |
| 1777904013 | 10.56° C | 81% | 1018.8 hPa | 0 mm | - | 45 W/m² | - |
| 1777903709 | 10.56° C | 83% | 1018.5 hPa | 0 mm | - | 41 W/m² | - |
| 1777903405 | 10° C | 83% | 1018.7 hPa | 0 mm | - | 39 W/m² | - |
| 1777903102 | 10° C | 83% | 1018.6 hPa | 0 mm | - | 34 W/m² | - |
| 1777902798 | 9.44° C | 84% | 1018.5 hPa | 0 mm | - | 30 W/m² | - |
| 1777902496 | 8.89° C | 87% | 1018.7 hPa | 0 mm | - | 26 W/m² | - |
| 1777902192 | 8.89° C | 88% | 1018.5 hPa | 0 mm | - | 19 W/m² | - |
| 1777901891 | 8.89° C | 88% | 1018.6 hPa | 0 mm | - | 16 W/m² | - |
| 1777901588 | 8.89° C | 88% | 1018.6 hPa | 0 mm | - | 14 W/m² | - |
| 1777901285 | 8.89° C | 88% | 1018.5 hPa | 0 mm | - | 11 W/m² | - |
| 1777900982 | 8.89° C | 88% | 1018.5 hPa | 0 mm | - | 8 W/m² | - |
| 1777900680 | 8.89° C | 88% | 1018.3 hPa | 0 mm | - | 6 W/m² | - |
* Rain latest hour (hover to see other rain measurements)
** Current wind speed in m/s (hover to see current wind gust speed)